Location: Pian di Sc�
(43.6333°N, 11.5500°E)
Time: 14:23:57
(UTC+00:00)

Cosmos 1356 Rocket - Pass Details

Date: 07 August 2020
Orbit: 543 x 598 km, 81.2° (Epoch: 25 September)

Event Time Altitude Azimuth Distance (km) Brightness Sun altitude
Rises 03:25:46 0° 182° (S) 2,811 6.6 -7.9°
Reaches altitude 10° 03:27:59 10° 180° (S) 1,909 5.8 -7.5°
Maximum altitude 03:32:11 67° 98° (E) 632 3.8 -6.9°
Drops below altitude 10° 03:36:20 10° 15° (NNE) 1,893 6.8 -6.2°
Sets 03:38:31 0° 13° (NNE) 2,786 7.6 -5.9°
